Regional Weather Roundup
Issued by NWS Jackson, KY

Home | Current Version | Previous Version | Graphics & Text | Print | Product List | Glossary On
Versions: 1 2 3 4 5 6 7 8 9 10 11 12 13 14 15 16 17 18 19 20 21 22 23 24 25 26 27 28 29 30 31 32 33 34 35 36 37 38 39 40 41 42 43 44 45 46 47 48 49 50
000
ASUS43 KJKL 220719
RWRJKL

EAST KENTUCKY HOURLY WEATHER ROUNDUP
NATIONAL WEATHER SERVICE JACKSON KY
300 AM EDT TUE JUL 22 2014

NOTE: "FAIR" INDICATES FEW OR NO CLOUDS BELOW 12,000 FEET WITH
NO SIGNIFICANT WEATHER AND/OR OBSTRUCTIONS TO VISIBILITY.

* THESE REPORTS ARE NOT UNDER NWS QUALITY CONTROL AND MAY NOT
  REPORT WEATHER SUCH AS PRECIPITATION AND FOG.

KYZ079-080-083-085-087-088-110-112-115-119-120-220800
...EASTERN KENTUCKY...

CITY           SKY/WX    TMP DP  RH WIND       PRES   REMARKS
JACKSON        CLEAR     73  67  81 CALM      30.12S
LONDON         CLEAR     73  69  87 CALM      30.11F
SOMERSET*      CLEAR     70  70 100 CALM      30.10S
MONTICELLO*    FOG       68  68 100 CALM      30.10S VSB 3/4
WILLIAMSBURG*    N/A     72  72 100 CALM      30.11S
MIDDLESBORO*   PTCLDY    70  68  93 CALM      30.12F
HARLAN APT*    CLOUDY    68  68 100 MISG      30.14S VSB<1/4
BLACK MTN*       N/A    N/A N/A N/A SW1         N/A
PIKEVILLE APT* CLEAR     72  66  83 SE3       30.13F
BIG SANDY*     SUNNY     72  69  90 CALM      30.12S
MOREHEAD APT*    N/A     72  70  94 CALM      30.12F
ASHLAND*         N/A     70  64  83 CALM      30.07F VSB 3/4
$$

KYZ035-036-041-042-044-050-067-078-099-220800
...CENTRAL KENTUCKY...

CITY           SKY/WX    TMP DP  RH WIND       PRES   REMARKS
MT STERLING*   CLEAR     68  68 100 CALM      30.12S
FLEMING/MASON* CLEAR     70  70  99 CALM      30.11S FOG
DANVILLE*      PTCLDY    68  68 100 CALM      30.10F
RICHMOND*      PTCLDY    72  68  88 CALM      30.09F
LEXINGTON      CLEAR     70  67  90 CALM      30.10F
FRANKFORT      CLEAR     68  66  93 CALM      30.08F
$$

KYZ091>093-OHZ055-061-077-WVZ005-015-034-035-042-220800
...SOUTHERN OHIO/WEST VIRGINIA...

CITY           SKY/WX    TMP DP  RH WIND       PRES   REMARKS
COVINGTON      CLEAR     74  66  76 E3        30.10F
COLUMBUS       CLEAR     72  67  84 CALM      30.10S
DAYTON         CLEAR     69  63  81 CALM      30.12S
WILMINGTON     CLEAR     67  64  90 CALM      30.11F FOG
HUNTINGTON     PTCLDY    69  69 100 CALM      30.09S FOG
CHARLESTON     PTCLDY    70  70 100 CALM      30.11S
PINEVILLE*     PTCLDY    67  67 100 MISG      30.22S
BECKLEY        PTCLDY    68  64  87 SE6       30.21F
BLUEFIELD      MOCLDY    69  64  84 VRB5      30.23F
$$

VAZ002-007-008-TNZ017-027-036-066-071-220800
...SOUTHWEST VIRGINIA/EAST TENNESSEE...

CITY           SKY/WX    TMP DP  RH WIND       PRES   REMARKS
WISE*          PTCLDY    68  61  77 S6        30.21S
JONESVILLE*      N/A     66  66 100 CALM      30.15F
ABINGDON*      CLOUDY    69  66  90 E7        30.18S
BRISTOL        MOCLDY    68  65  90 CALM      30.14F
KNOXVILLE      CLOUDY    73  71  93 CALM      30.09S
OAK RIDGE      PTCLDY    74  71  91 CALM      30.10F
CROSSVILLE     CLEAR     68  65  90 CALM      30.14F
NASHVILLE      PTCLDY    74  71  91 CALM      30.07S
$$

...KEY TO REMARKS...
VSB - VISIBILITY IN MILES
WCI - WIND CHILL INDEX
HX  - HEAT INDEX

$$



USA.gov is the U.S. government's official web portal to all federal, state and local government web resources and services.